Preview of NWS' New Version of Forecast
This preview is not operational and should not be used for support decisions.

Regional Weather Roundup (RWR)

Issued by National Weather Service (NWS)

                            
000
ASUS43 KBIS 182210
RWRND 

NORTH DAKOTA REGIONAL WEATHER ROUNDUP
NATIONAL WEATHER SERVICE BISMARCK ND
500 PM CDT TUE JUN 18 2019

NOTE: "FAIR" INDICATES FEW OR NO CLOUDS BELOW 12,000 FEET WITH NO
SIGNIFICANT WEATHER AND/OR OBSTRUCTIONS TO VISIBILITY.


NDZ001>003-009>011-017-182300-
NORTHWEST NORTH DAKOTA
  
CITY           SKY/WX    TMP DP  RH WIND       PRES   REMARKS
WILLISTON      SUNNY     78  47  33 S10       29.89F                  
MINOT          PTSUNNY   73  46  38 E5        29.93F                  
$$
 
NDZ018>021-031>035-040>046-182300-
SOUTHWEST NORTH DAKOTA
  
CITY           SKY/WX    TMP DP  RH WIND       PRES   REMARKS
BISMARCK       CLOUDY    74  51  44 VRB7      29.93F                  
DICKINSON      MOSUNNY   73  55  53 E13       29.88F                  
GARRISON         N/A     71  47  42 SE8       29.92F                  
HETTINGER ARPT CLOUDY    70  56  61 SE14      29.91S                  
$$
 
NDZ004>008-012>016-024-026-027-054-182300-
NORTHEAST NORTH DAKOTA
  
CITY           SKY/WX    TMP DP  RH WIND       PRES   REMARKS
GRAND FORKS    MOSUNNY   76  46  34 NE9       29.94F                  
DEVILS LAKE    MOSUNNY   69  48  47 SE8       29.97F                  
$$
 
NDZ022-023-025-028>030-036>039-047>053-182300-
SOUTHEAST NORTH DAKOTA
  
CITY           SKY/WX    TMP DP  RH WIND       PRES   REMARKS
FARGO          PTSUNNY   71  49  45 E7        29.94S                  
JAMESTOWN      PTSUNNY   73  50  44 E10       29.95F                  
$$